Content
SEND FEEDBACK

Daily
Averages
Monthly
Summary
United States of America

DEDEDO, GUAM


Home > North America > United States > Guam
Elevation: 111 meters     Latitude: 13 33N     Longitude: 144 49E

WEATHER
 
SELECT A DAY
Number of Records: 209,379;   Date Range: 1/1/95 - 9/21/14
 
SHARE

PRINT THIS DATA

[ ← Previous Day ]
WEATHER ALMANAC - 19 APRIL, 2014
[ Next Day → ]
[ °F ]   °C
Weather ElementAverageHighLow
Temperature28.4 °C31 °C (12:14 pm)26.7 °C (3:54 am)
Dewpoint25.5 °C26.1 °C (7:54 am)23.9 °C (10:54 am)
Humidity84.4 %94 % (2:52 am)70 % (1:14 pm)
Barometer1008.5 hPa1010.2 hPa (8:03 am)1006.8 hPa (2:54 pm)
Wind Speed15.8 km/h25.9 km/h (9:54 am)
Wind Gust38.9 km/h (2:18 pm)
Weather ElementAverage
Visibility15.9 km
Wind DirectionESE (106.2 °)

Weather ElementTotal
Precipitation1.52 mm
Cooling Degree Days10.6 (Base 18.3)
Growing Degree Days18.9 (Base 10)
Averaged from 47 records on 19 April, 2014
WEATHER CONDITIONS BREAKOUT
WIND DIRECTION BREAKOUT
WEATHER BY HOUR - 19 APRIL, 2014
[ °F ]   °C
Local TimeTemperatureDewpointHumidityBarometerVisibilityWind DirectionWind SpeedGust SpeedPrecipitationEventsConditions
1:54 AM27.2 °C25.6 °C91 %1008.1 hPa16.1 kmEast (80°)13 km/h0 mmScattered Clouds
2:52 AM27 °C26 °C94 %1008.5 hPa16.1 kmEast (90°)13 km/hMostly Cloudy
2:54 AM27.2 °C25.6 °C91 %1007.8 hPa16.1 kmEast (80°)9.3 km/hMostly Cloudy
3:22 AM27 °C25 °C89 %1008.5 hPa16.1 kmEast (90°)13 km/h0 mmMostly Cloudy
3:54 AM26.7 °C25.6 °C94 %1007.5 hPa16.1 kmEast (90°)11.1 km/h0 mmScattered Clouds
4:15 AM27 °C26 °C94 %1008.5 hPa16.1 kmEast (100°)14.8 km/hMostly Cloudy
4:23 AM27 °C26 °C94 %1008.5 hPa16.1 kmEast (90°)11.1 km/hScattered Clouds
4:54 AM27.2 °C25 °C88 %1007.8 hPa16.1 kmEast (100°)11.1 km/hPartly Cloudy
5:22 AM27 °C26 °C94 %1008.8 hPa16.1 kmEast (80°)11.1 km/hMostly Cloudy
5:45 AM27 °C25 °C89 %1008.5 hPa12.9 kmEast (80°)14.8 km/h0.25 mmRainLight Rain
5:54 AM26.7 °C25 °C90 %1007.8 hPa16.1 kmEast (80°)11.1 km/h0.25 mmScattered Clouds
6:54 AM27.2 °C25.6 °C91 %1008.5 hPa16.1 kmEast (80°)13 km/hScattered Clouds
7:07 AM27 °C26 °C94 %1009.5 hPa16.1 kmEast (80°)14.8 km/hMostly Cloudy
7:19 AM28 °C26 °C89 %1009.5 hPa16.1 kmEast (90°)14.8 km/hPartly Cloudy
7:54 AM28.3 °C26.1 °C88 %1009.5 hPa16.1 kmEast (90°)13 km/hScattered Clouds
8:03 AM28 °C26 °C89 %1010.2 hPa16.1 kmEast (80°)20.4 km/hMostly Cloudy
8:54 AM28.9 °C26.1 °C85 %1009.5 hPa16.1 kmEast (90°)24.1 km/h33.3 km/h0 mmOvercast
9:01 AM29 °C26 °C84 %1010.2 hPa16.1 kmEast (80°)22.2 km/h33.3 km/hMostly Cloudy
9:31 AM29 °C26 °C84 %1010.2 hPa16.1 kmEast (100°)18.5 km/hMostly Cloudy
9:54 AM29.4 °C25 °C77 %1009.1 hPa16.1 kmEast (90°)25.9 km/h35.2 km/hMostly Cloudy
10:54 AM27.2 °C23.9 °C82 %1008.8 hPa8 kmESE (120°)16.7 km/h33.3 km/h0 mmRainRain
11:09 AM29 °C26 °C84 %1009.5 hPa16.1 kmESE (110°)24.1 km/h35.2 km/h0 mmMostly Cloudy
11:54 AM30.6 °C25.6 °C74 %1008.5 hPa16.1 kmEast (100°)22.2 km/h33.3 km/h0 mmPartly Cloudy
12:14 PM31 °C26 °C75 %1008.8 hPa16.1 kmESE (110°)24.1 km/h37 km/hMostly Cloudy
12:25 PM31 °C26 °C75 %1008.8 hPa16.1 kmESE (110°)18.5 km/h35.2 km/hScattered Clouds
12:54 PM30.6 °C25 °C72 %1007.8 hPa16.1 kmESE (120°)22.2 km/h35.2 km/hScattered Clouds
1:14 PM31 °C25 °C70 %1008.1 hPa16.1 kmEast (100°)22.2 km/hMostly Cloudy
1:54 PM30.6 °C25.6 °C74 %1007.1 hPa16.1 kmSE (130°)18.5 km/h33.3 km/hMostly Cloudy
2:18 PM31 °C25 °C70 %1007.1 hPa16.1 kmEast (100°)22.2 km/h38.9 km/hScattered Clouds
2:30 PM31 °C26 °C75 %1007.5 hPa16.1 kmESE (110°)20.4 km/h35.2 km/hMostly Cloudy
2:54 PM30 °C25.6 °C77 %1006.8 hPa16.1 kmEast (100°)24.1 km/h33.3 km/hMostly Cloudy
3:21 PM31 °C26 °C75 %1007.5 hPa16.1 kmESE (120°)20.4 km/h33.3 km/hScattered Clouds
3:54 PM27.8 °C26.1 °C90 %1006.8 hPa16.1 kmSE (140°)11.1 km/h1.02 mmScattered Clouds
4:37 PM29 °C26 °C84 %1007.5 hPa16.1 kmESE (120°)13 km/h29.6 km/hMostly Cloudy
4:54 PM28.9 °C25.6 °C82 %1006.8 hPa16.1 kmESE (120°)18.5 km/h25.9 km/hScattered Clouds
5:54 PM28.3 °C25 °C82 %1007.1 hPa16.1 kmESE (120°)13 km/hPartly Cloudy
6:54 PM27.8 °C25 °C85 %1007.8 hPa16.1 kmESE (120°)13 km/hScattered Clouds
7:39 PM28 °C25 °C84 %1009.1 hPa16.1 kmESE (120°)13 km/hMostly Cloudy
7:54 PM27.8 °C25 °C85 %1008.5 hPa16.1 kmSE (130°)13 km/hMostly Cloudy
8:10 PM28 °C25 °C84 %1009.5 hPa16.1 kmSE (140°)13 km/hScattered Clouds
8:19 PM28 °C25 °C84 %1009.5 hPa16.1 kmSE (130°)11.1 km/hMostly Cloudy
8:29 PM28 °C25 °C84 %1009.8 hPa16.1 kmSE (130°)9.3 km/hPartly Cloudy
8:54 PM27.8 °C25 °C85 %1009.1 hPa16.1 kmSE (130°)11.1 km/hClear
9:54 PM27.2 °C25 °C88 %1009.5 hPa16.1 kmSE (130°)9.3 km/hMostly Cloudy
10:47 PM28 °C25 °C84 %1010.2 hPa16.1 kmSE (130°)13 km/hMostly Cloudy
10:54 PM27.8 °C25 °C85 %1009.1 hPa16.1 kmSE (130°)11.1 km/hScattered Clouds
11:54 PM27.8 °C25.6 °C88 %1009.1 hPa16.1 kmSE (130°)13 km/hPartly Cloudy
Hourly data recorded from PGUM, located 0 kilometers away from Dededo, Guam







STORIES FROM OUR PARTNERS